User: anonymous   Login
Location: *
(42.0175°N, 9.4056°E)
Time: 23:04:18
(UTC+00:00)
Language:

USA 229 - Orbit

View from above orbital plane
View from above orbital plane
View from above satellite
View from above satellite

Ground track
Ground track

The orbit data is extracted from the following two-line orbital elements,

1 37386U 11014A   19281.11190673 0.00000000  00000-0  00000-0 0    06
2 37386  63.4565  31.3009 0137630   1.0488 358.9829 13.40791699    08
Epoch (UTC): 08 October 2019 02:41:08
Eccentricity: 0.0137630
inclination: 63.4565°
perigee height: 1003 km
apogee height: 1209 km
right ascension of ascending node: 31.3009°
argument of perigee: 1.0488°
revolutions per day: 13.40791699
mean anomaly at epoch: 358.9829°
orbit number at epoch: 0

The dashed part of the orbit path shows where the satellite is in the earth's shadow,  

DLR